I1SCL Weather Reports


time (UTC)temp
C
wind
direction
speed
KPH
gust
KPH
rain 1hr
cm
rain 24hr
cm
rain mn
cm
humidity
%
barometer
mb
20260506203625 15 293 16.1 27.4 0.00 0.69 0.00 81 1007.4
20260506203122 14 293 14.5 24.1 0.00 0.69 0.00 81 1007.4
20260506202622 15 270 14.5 24.1 0.00 0.69 0.00 81 1007.2
20260506202125 15 293 14.5 24.1 0.00 0.69 0.00 80 1007.2
20260506201622 15 293 14.5 19.3 0.00 0.69 0.00 80 1007.3
20260506201125 15 293 14.5 24.1 0.00 0.69 0.00 79 1007.3
20260506200628 15 293 14.5 29.0 0.00 0.69 0.00 79 1007.3
20260506200122 15 270 20.9 29.0 0.00 0.69 0.00 78 1007.3
20260506195625 15 270 22.5 29.0 0.00 0.69 0.00 78 1007.1
20260506195122 15 293 19.3 27.4 0.00 0.69 0.00 79 1007.2
20260506194622 15 293 9.7 20.9 0.00 0.69 0.00 79 1007.2
20260506194125 15 338 12.9 29.0 0.00 0.69 0.00 79 1007.1
20260506193631 15 293 20.9 29.0 0.00 0.69 0.00 78 1007.0
20260506193128 15 293 14.5 27.4 0.00 0.69 0.00 78 1006.9
20260506192622 15 315 19.3 27.4 0.00 0.69 0.00 78 1006.6
20260506192129 15 293 16.1 20.9 0.00 0.69 0.00 78 1006.6
20260506191622 15 270 14.5 24.1 0.00 0.69 0.00 78 1006.6
20260506191122 15 293 16.1 24.1 0.00 0.69 0.00 78 1006.6
20260506190625 15 293 16.1 19.3 0.00 0.69 0.00 79 1006.4
20260506190125 15 293 14.5 17.7 0.00 0.69 0.00 79 1006.3
20260506185622 15 270 12.9 17.7 0.00 0.69 0.00 79 1006.4
20260506185125 15 270 14.5 19.3 0.00 0.69 0.00 78 1006.2
20260506184622 15 270 16.1 24.1 0.00 0.69 0.00 77 1006.2
20260506184125 15 293 12.9 24.1 0.00 0.69 0.00 77 1006.0
20260506183622 15 270 14.5 19.3 0.00 0.69 0.00 77 1005.9
20260506183122 15 270 14.5 27.4 0.00 0.69 0.00 76 1006.3
20260506182631 15 293 14.5 20.9 0.00 0.69 0.00 77 1006.0
20260506182125 15 293 11.3 17.7 0.00 0.69 0.00 77 1006.2
20260506181625 15 293 12.9 16.1 0.00 0.69 0.00 77 1005.9
20260506181125 15 315 11.3 16.1 0.00 0.69 0.00 77 1006.3
20260506180628 15 293 8.0 9.7 0.00 0.69 0.00 75 1005.9
20260506180125 15 293 8.0 19.3 0.00 0.69 0.00 75 1006.0
20260506175622 16 293 14.5 24.1 0.00 0.69 0.00 74 1006.0
20260506175122 16 270 12.9 17.7 0.00 0.69 0.00 74 1006.0
20260506174625 16 270 14.5 19.3 0.00 0.69 0.00 74 1006.0
20260506174122 16 270 14.5 17.7 0.00 0.69 0.00 73 1005.8
20260506173625 16 293 14.5 16.1 0.00 0.69 0.00 74 1005.9
20260506173125 16 293 14.5 19.3 0.00 0.69 0.00 73 1006.0
20260506172628 16 270 11.3 17.7 0.00 0.69 0.00 74 1005.8
20260506172128 16 270 14.5 19.3 0.00 0.69 0.00 73 1005.9
20260506171622 16 270 9.7 19.3 0.00 0.69 0.00 73 1005.8
20260506171122 16 270 14.5 24.1 0.00 0.69 0.00 73 1005.9
20260506170622 16 270 14.5 20.9 0.00 0.69 0.00 73 1005.6
20260506170122 16 270 14.5 19.3 0.00 0.69 0.00 74 1005.8
20260506165622 16 270 14.5 20.9 0.00 0.69 0.00 73 1006.0
20260506165125 16 270 14.5 24.1 0.00 0.69 0.00 73 1005.8
20260506164622 16 270 17.7 24.1 0.00 0.69 0.00 72 1005.6
20260506164125 16 270 17.7 27.4 0.00 0.69 0.00 72 1005.9
20260506163622 16 270 17.7 27.4 0.00 0.69 0.00 71 1005.7
20260506163125 16 293 19.3 27.4 0.00 0.69 0.00 72 1006.0
20260506162622 16 293 20.9 29.0 0.00 0.69 0.00 71 1005.6
20260506162122 17 293 19.3 24.1 0.00 0.69 0.00 71 1005.6
20260506161622 17 248 16.1 27.4 0.00 0.69 0.00 71 1005.7
20260506161125 17 293 17.7 27.4 0.00 0.69 0.00 71 1005.7
20260506160623 16 270 20.9 35.4 0.00 0.69 0.00 69 1005.7
20260506160125 17 293 17.7 32.2 0.00 0.69 0.00 69 1005.9
20260506155625 17 270 22.5 29.0 0.00 0.69 0.00 69 1005.7
20260506155122 17 293 19.3 24.1 0.00 0.69 0.00 70 1005.7
20260506154622 17 270 19.3 35.4 0.00 0.69 0.00 69 1005.7
20260506154125 16 270 22.5 38.6 0.00 0.69 0.00 68 1005.8
20260506153622 17 293 19.3 30.6 0.00 0.69 0.00 69 1005.7
20260506153127 16 293 24.1 30.6 0.00 0.69 0.00 70 1005.8
20260506152625 16 293 22.5 29.0 0.00 0.69 0.00 70 1005.7
20260506152128 17 270 19.3 30.6 0.00 0.69 0.00 70 1005.6
20260506151625 17 248 20.9 38.6 0.00 0.69 0.00 70 1005.8
20260506151122 16 270 24.1 35.4 0.00 0.69 0.00 70 1005.7
20260506150625 16 315 20.9 35.4 0.00 0.69 0.00 68 1005.5
20260506150122 16 270 19.3 41.8 0.00 0.69 0.00 71 1005.7
20260506145622 16 270 30.6 43.5 0.00 0.69 0.00 71 1005.8
20260506145125 17 293 22.5 38.6 0.00 0.69 0.00 71 1006.0
20260506144622 16 270 30.6 45.1 0.00 0.69 0.00 71 1005.8
20260506144122 16 293 30.6 41.8 0.00 0.69 0.00 72 1005.8
20260506143622 16 293 29.0 41.8 0.00 0.69 0.00 71 1005.8
20260506143128 16 270 30.6 35.4 0.00 0.69 0.00 73 1005.8
20260506142622 16 293 29.0 40.2 0.00 0.69 0.00 74 1005.7
20260506142125 16 270 24.1 35.4 0.00 0.69 0.00 75 1006.0
20260506141625 16 270 29.0 35.4 0.00 0.69 0.00 75 1006.0
20260506141122 16 270 27.4 40.2 0.00 0.69 0.00 74 1006.0
20260506140622 16 293 30.6 43.5 0.00 0.69 0.00 76 1006.0
20260506140125 16 270 35.4 43.5 0.00 0.69 0.00 75 1006.0
20260506135622 16 270 29.0 43.5 0.00 0.69 0.00 75 1006.2
20260506135122 16 270 30.6 40.2 0.00 0.69 0.00 75 1006.2
20260506134625 16 293 33.8 40.2 0.00 0.69 0.00 77 1006.0
20260506134122 16 270 29.0 40.2 0.00 0.69 0.00 78 1006.5
20260506133628 16 270 25.7 40.2 0.00 0.69 0.00 79 1006.2
20260506133128 15 270 32.2 41.8 0.00 0.69 0.00 80 1006.2
20260506132625 15 270 35.4 41.8 0.00 0.69 0.00 80 1006.0
20260506132122 15 270 35.4 43.5 0.00 0.69 0.00 79 1006.4
20260506131625 15 270 35.4 43.5 0.00 0.69 0.00 78 1006.2
20260506131122 16 270 32.2 45.1 0.00 0.69 0.00 78 1006.3
20260506130628 15 270 35.4 41.8 0.00 0.69 0.00 77 1006.5
20260506130128 15 293 33.8 41.8 0.00 0.69 0.00 77 1006.3
20260506125625 15 270 37.0 41.8 0.00 0.69 0.00 77 1006.5
20260506125122 15 270 33.8 43.5 0.00 0.69 0.00 79 1006.4
20260506124622 15 293 35.4 43.5 0.00 0.69 0.00 78 1006.3
20260506124125 15 248 35.4 43.5 0.00 0.69 0.00 78 1006.2
20260506123622 15 293 32.2 40.2 0.00 0.69 0.00 79 1006.5
20260506123122 15 293 32.2 41.8 0.00 0.69 0.00 79 1006.2
20260506122625 15 270 35.4 43.5 0.00 0.69 0.00 77 1006.0
20260506122125 15 270 35.4 40.2 0.00 0.69 0.00 77 1006.4
20260506121622 15 293 33.8 41.8 0.00 0.69 0.00 77 1006.4
20260506121122 15 270 30.6 45.1 0.00 0.69 0.00 77 1006.4
20260506120625 15 270 35.4 45.1 0.00 0.69 0.00 78 1006.5
20260506120128 15 270 35.4 45.1 0.00 0.69 0.00 78 1006.4
20260506115622 15 293 35.4 43.5 0.00 0.69 0.00 81 1006.0
20260506115122 15 293 35.4 46.7 0.00 0.69 0.00 81 1006.2
20260506114625 15 270 40.2 49.9 0.00 0.69 0.00 81 1006.4
20260506114122 15 270 40.2 49.9 0.00 0.69 0.00 81 1006.4
20260506113625 15 293 43.5 49.9 0.00 0.69 0.00 80 1006.2
20260506113122 15 270 41.8 54.7 0.00 0.69 0.00 81 1006.0
20260506112622 15 270 40.2 46.7 0.00 0.69 0.00 81 1006.3
20260506112125 15 270 37.0 46.7 0.00 0.69 0.00 79 1006.3
20260506111625 15 270 40.2 49.9 0.00 0.69 0.00 78 1006.0
20260506111128 15 270 35.4 49.9 0.00 0.69 0.00 79 1006.3
20260506110622 15 270 38.6 46.7 0.00 0.69 0.00 79 1006.3
20260506110125 15 293 40.2 46.7 0.00 0.69 0.00 77 1006.3
20260506105625 15 270 35.4 46.7 0.00 0.69 0.00 78 1006.2
20260506105122 15 270 35.4 46.7 0.00 0.69 0.00 77 1005.9
20260506104625 15 293 37.0 45.1 0.00 0.69 0.00 79 1006.5
20260506104125 15 270 35.4 45.1 0.00 0.69 0.00 78 1006.4
20260506103628 15 270 30.6 46.7 0.00 0.69 0.00 78 1006.4
20260506103125 15 293 37.0 49.9 0.00 0.69 0.00 77 1006.3
20260506102622 15 270 37.0 46.7 0.00 0.69 0.00 77 1006.2
20260506102128 15 270 35.4 45.1 0.00 0.69 0.00 77 1006.3
20260506101622 15 270 35.4 45.1 0.00 0.69 0.00 78 1006.4
20260506101125 15 293 32.2 43.5 0.00 0.69 0.00 78 1006.4
20260506100622 15 270 35.4 43.5 0.00 0.69 0.00 75 1006.4
20260506100122 15 293 35.4 43.5 0.00 0.69 0.00 74 1006.2
20260506095622 15 270 33.8 41.8 0.00 0.69 0.00 72 1006.2
20260506095122 15 270 33.8 41.8 0.00 0.69 0.00 70 1006.4
20260506094622 15 293 35.4 45.1 0.00 0.69 0.00 69 1006.3
20260506094122 16 293 32.2 40.2 0.00 0.69 0.00 72 1006.2
20260506093625 15 270 35.4 40.2 0.00 0.69 0.00 72 1006.0
20260506093128 15 270 33.8 38.6 0.00 0.69 0.00 74 1006.2
20260506092625 15 270 27.4 32.2 0.00 0.69 0.00 75 1006.5
20260506092122 15 270 22.5 30.6 0.00 0.69 0.00 75 1006.3
20260506091625 15 248 24.1 29.0 0.00 0.69 0.00 77 1006.2
20260506091122 15 270 22.5 29.0 0.00 0.69 0.00 77 1006.3
20260506090625 15 270 24.1 29.0 0.00 0.69 0.00 75 1006.4
20260506090128 15 293 20.9 27.4 0.00 0.69 0.00 78 1006.4
20260506085622 15 270 19.3 24.1 0.00 0.69 0.00 78 1006.2
20260506085125 15 270 16.1 24.1 0.00 0.69 0.00 79 1006.2
20260506084625 14 270 19.3 24.1 0.00 0.69 0.00 80 1005.9
20260506084128 15 270 16.1 20.9 0.00 0.69 0.00 80 1006.2
20260506083622 15 293 16.1 24.1 0.00 0.69 0.00 79 1005.7
20260506083122 15 270 17.7 27.4 0.00 0.69 0.00 78 1005.9
20260506082622 15 270 16.1 24.1 0.00 0.69 0.00 78 1006.0
20260506082122 14 248 17.7 24.1 0.00 0.69 0.00 78 1005.9
20260506081622 15 270 19.3 20.9 0.00 0.69 0.00 78 1006.2
20260506081122 15 270 16.1 24.1 0.00 0.69 0.00 76 1006.0
20260506080122 15 270 19.3 24.1 0.00 0.69 0.00 73 1005.9
20260506073122 15 270 14.5 16.1 0.00 0.69 0.00 70 1006.0
20260506072625 14 293 6.4 14.5 0.00 0.69 0.00 73 1005.8
20260506072122 14 293 9.7 16.1 0.00 0.69 0.00 73 1005.9
20260506071625 14 270 12.9 16.1 0.00 0.69 0.00 74 1005.9
20260506071125 14 248 14.5 16.1 0.00 0.69 0.00 76 1005.8
20260506070625 14 270 6.4 9.7 0.00 0.69 0.00 79 1005.8
20260506070122 13 270 8.0 9.7 0.00 0.69 0.00 81 1005.6
20260506062128 13 270 9.7 12.9 0.00 0.71 0.00 83 1005.6
20260506061622 12 248 9.7 12.9 0.00 0.71 0.00 83 1005.6
20260506061125 12 270 9.7 12.9 0.00 0.71 0.00 83 1005.5
20260506060628 12 293 9.7 12.9 0.00 0.71 0.00 82 1005.7
20260506060122 12 293 9.7 12.9 0.00 0.71 0.00 82 1005.6
20260506051122 12 248 3.2 3.2 0.00 0.71 0.00 76 1005.3
20260506050622 12 23 0.0 3.2 0.00 0.71 0.00 77 1005.2
20260506050122 13 180 0.0 3.2 0.00 0.71 0.00 76 1005.3
20260506045122 13 135 4.8 6.4 0.00 0.71 0.00 76 1005.2
20260506044628 13 158 4.8 6.4 0.00 0.71 0.00 77 1005.0
20260506044125 12 135 6.4 9.7 0.03 0.71 0.00 77 1005.1
20260506043628 12 158 4.8 9.7 0.08 0.71 0.00 77 1005.1
20260506043128 13 158 4.8 6.4 0.13 0.71 0.00 76 1005.2
20260506042631 12 203 4.8 9.7 0.25 0.71 0.00 77 1005.2
20260506042122 12 158 6.4 9.7 0.28 0.71 0.00 76 1005.1
20260506041628 12 158 6.4 9.7 0.30 0.71 0.00 76 1005.2
20260506041125 12 158 6.4 9.7 0.30 0.71 0.00 78 1005.1
20260506040622 12 135 1.6 6.4 0.30 0.71 0.00 81 1005.2
20260506040125 12 135 4.8 12.9 0.30 0.71 0.00 82 1005.1
20260506035631 12 135 9.7 12.9 0.30 0.71 0.00 82 1005.3
20260506035128 12 113 8.0 12.9 0.30 0.71 0.00 81 1005.3
20260506034628 12 293 9.7 29.0 0.30 0.74 0.00 82 1005.6
20260506034122 12 270 20.9 38.6 0.28 0.71 0.00 82 1006.0
20260506033625 12 270 30.6 45.1 0.23 0.64 0.00 82 1005.8
20260506033125 12 293 38.6 45.1 0.18 0.58 0.00 80 1005.6
20260506032628 12 293 24.1 35.4 0.05 0.46 0.00 78 1005.8
20260506032122 12 270 27.4 40.2 0.03 0.43 0.00 77 1005.6
20260506031622 12 315 24.1 38.6 0.00 0.41 0.00 77 1005.5
20260506031122 13 248 24.1 27.4 0.00 0.41 0.00 74 1005.7
20260506030622 13 315 1.6 12.9 0.00 0.41 0.00 74 1005.3
20260506030131 13 45 6.4 9.7 0.00 0.41 0.00 77 1005.1
20260506025622 13 90 4.8 9.7 0.00 0.41 0.00 78 1005.2
20260506025125 13 113 9.7 9.7 0.00 0.41 0.00 79 1005.3
20260506024625 13 90 3.2 6.4 0.00 0.41 0.00 78 1005.5
20260506024122 13 135 4.8 6.4 0.00 0.41 0.00 76 1005.5
20260506023625 13 135 4.8 6.4 0.00 0.41 0.00 74 1005.5
20260506023125 13 113 1.6 4.8 0.00 0.41 0.00 74 1005.5
20260506022622 13 135 3.2 6.4 0.00 0.41 0.00 74 1005.3
20260506022125 13 158 1.6 9.7 0.00 0.41 0.00 75 1005.7
20260506021622 14 158 8.0 9.7 0.00 0.41 0.00 70 1005.8
20260506021122 14 113 0.0 4.8 0.00 0.41 0.00 69 1005.8
20260506020622 13 90 1.6 4.8 0.00 0.43 0.00 72 1005.7
20260506020122 13 90 3.2 4.8 0.00 0.69 0.00 75 1005.9
20260506015622 12 113 3.2 4.8 0.00 0.69 0.00 79 1006.2
20260506015125 13 338 0.0 3.2 0.00 0.69 0.00 81 1006.4
20260506014622 13 248 1.6 3.2 0.00 0.69 0.00 82 1006.3
20260506014122 13 270 1.6 3.2 0.00 0.69 0.00 82 1006.5
20260506013625 12 0 0.0 3.2 0.00 0.69 0.00 83 1006.5
20260506013125 13 113 0.0 4.8 0.00 0.69 0.00 83 1006.3
20260506012625 13 113 0.0 3.2 0.00 0.69 0.00 83 1006.3
20260506012125 12 68 0.0 3.2 0.00 0.69 0.00 83 1006.2
20260506011625 12 293 1.6 3.2 0.00 0.69 0.00 84 1006.4
20260506011122 12 0 1.6 1.6 0.00 0.69 0.00 84 1006.4
20260506010631 12 45 0.0 4.8 0.00 0.69 0.00 84 1006.4
20260506010122 12 293 3.2 4.8 0.00 0.69 0.00 84 1006.3
20260506005622 12 90 0.0 6.4 0.03 0.69 0.00 85 1006.4
20260506005125 12 113 4.8 9.7 0.03 0.69 0.00 85 1006.0
20260506004625 12 135 9.7 9.7 0.05 0.69 0.00 88 1005.8
20260506004125 12 113 1.6 6.4 0.05 0.69 0.00 88 1005.9
20260506003625 12 68 4.8 6.4 0.05 0.69 0.00 89 1006.0
20260506003122 13 45 0.0 3.2 0.05 0.69 0.00 89 1006.3
20260506002622 13 315 0.0 4.8 0.05 0.69 0.00 89 1006.8
20260506002128 12 180 1.6 4.8 0.05 0.69 0.00 89 1006.8
20260506001631 13 315 0.0 4.8 0.05 0.69 0.00 89 1006.8
20260506001125 13 293 4.8 6.4 0.08 0.69 0.00 89 1007.0
20260506000625 13 113 0.0 1.6 0.08 0.69 0.00 89 1007.2
20260506000128 13 113 0.0 1.6 0.08 0.69 0.00 89 1007.2
20260505235625 13 338 0.0 3.2 0.05 0.64 0.00 89 1007.4
20260505235125 13 315 0.0 1.6 0.08 0.69 0.00 89 1007.6
20260505234625 13 315 0.0 4.8 0.10 0.64 0.00 88 1007.7
20260505234125 13 293 3.2 4.8 0.10 0.64 0.00 88 1008.1
20260505233622 13 270 3.2 6.4 0.13 0.64 0.00 88 1008.1
20260505233122 13 293 4.8 6.4 0.20 0.64 0.00 88 1008.2
20260505232622 13 293 4.8 6.4 0.23 0.64 0.00 88 1008.1
20260505232125 13 293 4.8 6.4 0.25 0.64 0.00 88 1008.4
20260505231622 13 338 3.2 9.7 0.25 0.64 0.00 87 1008.5
20260505231125 13 270 4.8 9.7 0.25 0.61 0.00 87 1008.6
20260505230622 13 90 0.0 4.8 0.25 0.61 0.00 87 1008.4
20260505230125 13 203 0.0 9.7 0.25 0.64 0.00 87 1008.1
20260505225622 13 270 9.7 17.7 0.25 0.64 0.00 86 1008.2
20260505225122 13 270 12.9 16.1 0.23 0.61 0.00 85 1008.3
20260505224622 13 315 4.8 12.9 0.18 0.56 0.00 85 1008.2
20260505224122 13 270 8.0 9.7 0.18 0.56 0.00 84 1008.2
20260505223622 13 248 3.2 4.8 0.13 0.56 0.00 84 1008.2
20260505223122 13 90 0.0 3.2 0.08 0.53 0.00 84 1008.2
20260505222622 13 68 0.0 3.2 0.05 0.51 0.00 84 1008.0
20260505222125 13 90 1.6 4.8 0.03 0.46 0.00 83 1008.2
20260505221625 13 113 1.6 4.8 0.03 0.51 0.00 83 1008.5
20260505221128 14 113 1.6 9.7 0.00 0.46 0.00 82 1008.5
20260505220622 14 135 4.8 9.7 0.00 0.46 0.00 81 1008.1
20260505220122 14 90 1.6 9.7 0.00 0.51 0.00 82 1008.2
20260505215622 13 113 8.0 9.7 0.00 0.51 0.00 82 1008.2
20260505215122 14 113 6.4 9.7 0.00 0.51 0.00 82 1008.4
20260505214622 14 45 4.8 9.7 0.00 0.51 0.00 82 1008.6
20260505214125 14 90 6.4 14.5 0.00 0.51 0.00 82 1008.9
20260505213622 14 90 9.7 16.1 0.00 0.51 0.00 82 1009.4
20260505213125 14 113 4.8 14.5 0.00 0.51 0.00 83 1009.4
20260505212622 13 45 9.7 16.1 0.00 0.53 0.00 84 1009.4
20260505212122 13 68 9.7 16.1 0.00 0.53 0.00 84 1009.2
20260505211622 13 68 6.4 12.9 0.00 0.56 0.00 85 1009.3
20260505211125 13 90 4.8 12.9 0.00 0.56 0.00 85 1009.3
20260505210625 13 68 4.8 19.3 0.00 0.56 0.00 85 1009.6
20260505210122 13 90 9.7 19.3 0.00 0.56 0.00 85 1009.2
20260505205625 13 113 6.4 12.9 0.00 0.56 0.00 85 1009.4
20260505205131 13 90 8.0 12.9 0.00 0.56 0.00 85 1009.8
20260505204625 13 113 8.0 12.9 0.00 0.56 0.00 85 1009.7
20260505204122 13 68 8.0 16.1 0.00 0.56 0.00 85 1009.7